Weather in Summit

United States     40°44′30″N   74°21′35″W
temp.,
°C
wind,
m/s
gust,
m/s
humid.,
%
clouds,
%
prec.,
mm/h
press.,
hPa
HPBL,
m
26 may, thu
thu2623:00+14sse3661100 0.0 1028450
02:00+13sse2566100 0.0 1028402
05:00+13se2574100 0.0 1027318
08:00+15sse3666100 0.0 1027676
11:00+19se5650100 0.0 10261011
14:00+21se564991 0.0 10241187
17:00+21sse5659100 0.0 10221017
20:00+19sse4876100 0.0 1020561
27 may, fri
fri2723:00+18s31082100 0.0 1020522
02:00+18s2993100 0.2 1018494
05:00+18s2897100 0.1 1016509
08:00+19s2892100 0.1 1016522
11:00+25ssw4865100 0.0 10141131
14:00+26ssw5969100 1.6 10121383
17:00+22sw41092100 3.3 1012773
20:00+20ssw51394100 5.6 1012921
28 may, sat
sat2823:00+19s51296100 2.1 1010750
02:00+18sse31097100 3.1 1008736
05:00+18sse2898100 0.0 1007414
08:00+19ssw3791100 0.1 1007563
11:00+20wsw478480 0.1 1007653
14:00+26wsw57424 0.1 10061963
17:00+25w66449 0.0 10061799
20:00+20wnw4107344 0.4 1008706
29 may, sun
sun2923:00+19nw411824 0.1 1010681
02:00+17nnw411721 0.1 1012518
05:00+15nw23785 0.0 1014100
08:00+19nw12635 0.0 1016292
11:00+24w224178 0.0 10171502
14:00+27w133097 0.0 10161943
17:00+28sw233178 0.0 10151986
20:00+24wsw374934 0.0 1017452
30 may, mon
mon3023:00+20wsw266473 0.0 1018202
02:00+19wsw247025 0.0 1019107
05:00+17wsw2679100 0.0 1019164
08:00+21wsw3767100 0.0 1019342
11:00+27sw464955 0.0 1018936
14:00+31wsw5639100 0.0 10161459
17:00+32w573956 0.0 10151687
20:00+28wsw4959100 0.0 1015515